Change the Weather History Date:

Sunday, May 5, 2013

  Actual Average Record
Temperature  
Mean Temperature 61 °F 62 °F  
Max Temperature 69 °F 74 °F 92 °F (2011)
Min Temperature 53 °F 50 °F 45 °F (2003)
Degree Days  
Heating Degree Days 4    
Month to date heating degree days 4  
Since 1 July heating degree days 2355  
Cooling Degree Days 0    
Month to date cooling degree days 26  
Year to date cooling degree days 54  
Growing Degree Days 10 (Base 50)    
Moisture  
Dew Point 47 °F    
Average Humidity 63    
Maximum Humidity 83    
Minimum Humidity 42    
Precipitation  
Precipitation T in - 0.00 in (2015)
Month to date precipitation T  
Year to date precipitation 1.92  
Since 1 July precipitation 11.56  
Sea Level Pressure  
Sea Level Pressure 29.67 in    
Wind  
Wind Speed 7 mph (West)    
Max Wind Speed 15 mph    
Max Gust Speed 18 mph    
Visibility 10 miles    
Events      
T = Trace of Precipitation, MM = Missing Value Source: NWS Daily Summary

Daily Weather History Graph

Daily Weather History Graph

Search for Another Location

Airport or City:

Trip Planner

Search our weather history database for the weather conditions in past years. The results will help you decide how hot, cold, wet, or windy it might be!

Date:

Astronomy

May. 05, 2013 Rise Set
Actual Time 6:07 AM PDT 8:03 PM PDT
Civil Twilight 5:38 AM PDT 8:31 PM PDT
Nautical Twilight 5:03 AM PDT 9:06 PM PDT
Astronomical Twilight 4:26 AM PDT 9:44 PM PDT
Moon 3:36 AM PDT (5/5) 4:11 PM PDT (5/5)
Length of Visible Light 14h 53m
Length of Day
13h 55m
Waning Crescent, 17% of the Moon is Illuminated
May 5
Waning Crescent
May 9
New
May 17
First Quarter
May 24
Full
May 31
Last Quarter

Hourly Weather History & Observations

Time (PDT) Temp. Dew Point Humidity Pressure Visibility Wind Dir Wind Speed Gust Speed Precip Events Conditions
12:53 AM 54.0 °F 46.9 °F 77% 29.58 in 10.0 mi West 6.9 mph - N/A   Clear
1:53 AM 53.1 °F 48.0 °F 83% 29.58 in 10.0 mi West 11.5 mph - N/A   Partly Cloudy
2:36 AM 53.6 °F 46.4 °F 77% 29.63 in 10.0 mi WSW 10.4 mph - N/A   Mostly Cloudy
2:53 AM 54.0 °F 48.0 °F 80% 29.59 in 10.0 mi WSW 9.2 mph - N/A   Mostly Cloudy
3:53 AM 55.0 °F 46.9 °F 74% 29.60 in 10.0 mi West 6.9 mph - N/A   Overcast
4:42 AM 55.4 °F 46.4 °F 72% 29.64 in 10.0 mi West 3.5 mph - N/A   Mostly Cloudy
4:53 AM 54.0 °F 46.9 °F 77% 29.60 in 10.0 mi West 3.5 mph - N/A   Mostly Cloudy
5:53 AM 54.0 °F 46.9 °F 77% 29.61 in 10.0 mi Calm Calm - N/A   Mostly Cloudy
6:53 AM 55.0 °F 46.0 °F 72% 29.63 in 10.0 mi West 5.8 mph - N/A   Overcast
7:53 AM 57.9 °F 45.0 °F 62% 29.65 in 10.0 mi SSW 4.6 mph - N/A   Overcast
8:53 AM 60.1 °F 45.0 °F 57% 29.66 in 10.0 mi SSW 10.4 mph - N/A   Mostly Cloudy
9:53 AM 61.0 °F 45.0 °F 56% 29.68 in 10.0 mi South 6.9 mph - N/A   Mostly Cloudy
10:53 AM 61.0 °F 45.0 °F 56% 29.69 in 10.0 mi Calm Calm - N/A   Mostly Cloudy
11:53 AM 66.0 °F 45.0 °F 47% 29.68 in 10.0 mi SW 8.1 mph - 0.00 in   Mostly Cloudy
12:53 PM 68.0 °F 45.0 °F 43% 29.67 in 10.0 mi Variable 3.5 mph - N/A   Mostly Cloudy
1:53 PM 66.0 °F 46.0 °F 48% 29.68 in 10.0 mi NNW 9.2 mph - N/A   Overcast
2:53 PM 64.9 °F 48.0 °F 54% 29.68 in 10.0 mi NW 11.5 mph - N/A   Overcast
3:53 PM 64.0 °F 48.0 °F 56% 29.68 in 10.0 mi WNW 9.2 mph - N/A   Mostly Cloudy
5:53 PM 64.9 °F 48.0 °F 54% 29.69 in 10.0 mi NW 10.4 mph - N/A   Overcast
6:53 PM 64.0 °F 48.9 °F 58% 29.70 in 10.0 mi West 5.8 mph - N/A   Mostly Cloudy
7:53 PM 63.0 °F 48.9 °F 60% 29.71 in 10.0 mi NW 4.6 mph - N/A   Mostly Cloudy
8:53 PM 60.1 °F 48.0 °F 64% 29.73 in 10.0 mi West 6.9 mph - N/A   Overcast
9:53 PM 59.0 °F 48.0 °F 67% 29.75 in 10.0 mi West 5.8 mph - N/A   Mostly Cloudy
10:53 PM 57.9 °F 48.0 °F 70% 29.76 in 10.0 mi WNW 3.5 mph - N/A   Mostly Cloudy
11:53 PM 57.9 °F 50.0 °F 75% 29.78 in 10.0 mi West 8.1 mph - N/A   Overcast